Back to catalog

ALOUETTE 1

S-27

AliveSciencePO
NORAD 424·PAYLOAD·🇨🇦 Canada

Launched Sep 29, 1962 from Vandenberg Space Force Base

Loading…

Next Passes (next 24 hours)

TLE

FreshSource: Space-Track

Epoch: Sep 14, 2026, 10:58 UTC

1 00424U 62049A   26257.45723586  .00000081  00000-0  82045-4 0  9995
2 00424  80.4694 168.0558 0023491   8.6474 351.5072 13.69602533193334

Track ALOUETTE 1 in real time with AllMySat

Download on the App Store